Regional Weather Roundup
Issued by NWS

Home | Current Version | Previous Version | Text Only | Print | Product List | Glossary On
Versions: 1 2 3 4 5 6 7 8 9 10 11 12 13 14 15 16 17 18 19 20 21 22 23 24 25 26 27 28 29 30 31 32 33 34 35 36 37 38 39 40 41 42 43 44 45 46 47 48 49 50
000
ASUS45 KREV 031710
RWRNV
NEVADA REGIONAL WEATHER ROUNDUP
NATIONAL WEATHER SERVICE RENO NV
1000 AM PDT SUN MAY 03 2015

NOTE: "FAIR" INDICATES FEW OR NO CLOUDS BELOW 12,000 FEET WITH NO
SIGNIFICANT WEATHER AND/OR OBSTRUCTIONS TO VISIBILITY.

NVZ001-003-004-031800-
WESTERN NEVADA

CITY           SKY/WX    TMP DP  RH WIND       PRES   REMARKS
RENO           MOSUNNY   66  29  24 CALM      29.95F
CARSON CITY    FAIR      64  28  25 CALM      29.97S
MINDEN         FAIR      63  28  27 CALM      29.97
SLIDE MTN        N/A     45  19  36 SW3         N/A
PYRAMID LAKE     N/A     64 N/A N/A NE5         N/A
FALLON         SUNNY     70  33  25 N3        29.92S
LOVELOCK       SUNNY     70  32  24 SW6       29.91F
HAWTHORNE      SUNNY     68  32  26 W6        29.94F
$$

NVZ002-CAZ072-073-031800-
NORTHERN AND CENTRAL SIERRA

CITY           SKY/WX    TMP DP  RH WIND       PRES   REMARKS
S. LAKE TAHOE  SUNNY     60  30  32 VRB5      30.01F
TRUCKEE        SUNNY     54  32  43 CALM      30.02F
SQUAW VLY 8000   N/A     50  21  32 SW8         N/A
SUSANVILLE     SUNNY     64  36  34 E3        29.95S
BLUE CANYON    SUNNY     61  22  22 VRB7      30.01R
MAMMOTH LAKES  FAIR      61  25  25 SE3       30.04F
BRIDGEPORT     FAIR      60  28  29 VRB3      29.99F
$$

NVZ030-031-036-031800-
NORTHERN NEVADA

CITY           SKY/WX    TMP DP  RH WIND       PRES   REMARKS
ELKO           SUNNY     69  35  28 SW7       29.95R
WINNEMUCCA     NOT AVBL
WENDOVER       MOSUNNY   72  36  26 E10       29.92R
$$

NVZ035-037-031800-
CENTRAL NEVADA

CITY           SKY/WX    TMP DP  RH WIND       PRES   REMARKS
ELY            MOSUNNY   65  23  20 SW16G23   30.02S
EUREKA           N/A     67  31  26 VRB6      29.97S
$$

NVZ013-014-031800-
SOUTH CENTRAL NEVADA

CITY           SKY/WX    TMP DP  RH WIND       PRES   REMARKS
TONOPAH        NOT AVBL
$$

NVZ017-020-022-031800-
SOUTHERN NEVADA

CITY           SKY/WX    TMP DP  RH WIND       PRES   REMARKS
LAS VEGAS      MOSUNNY   80  29  15 SW8       29.83R
N. LAS VEGAS   PTSUNNY   80  29  15 SE10      29.86S
NELLIS AFB     SUNNY     82  38  21 S12G21    29.85R
HENDERSON      MOSUNNY   82  38  20 S16       29.89R
MERCURY        SUNNY     79  25  13 SW7       29.88S
$$



USA.gov is the U.S. government's official web portal to all federal, state and local government web resources and services.